Weather History for Evanston, WY

Change the Weather History Date:

Sunday, March 10, 2013

  Actual Average Record
Temperature  
Mean Temperature 28 °F 29 °F  
Max Temperature 41 °F 38 °F 53 °F (2014)
Min Temperature 16 °F 20 °F 2 °F (2009)
Degree Days  
Heating Degree Days 36 36  
Month to date heating degree days 314 375  
Since 1 July heating degree days 5909 6383  
Cooling Degree Days 0 0  
Month to date cooling degree days 0 0  
Year to date cooling degree days 0 0  
Moisture  
Dew Point 15 °F    
Average Humidity 59    
Maximum Humidity 80    
Minimum Humidity 37    
Precipitation  
Precipitation 0.00 in 0.02 in 0.04 in (2007)
Month to date precipitation 0.15 0.21  
Year to date precipitation 0.62 1.36  
Sea Level Pressure  
Sea Level Pressure 30.31 in    
Wind  
Wind Speed 7 mph (WSW)    
Max Wind Speed 16 mph    
Max Gust Speed -    
Visibility 10 miles    
Events      
T = Trace of Precipitation, MM = Missing Value Source: NWS Daily Summary

Daily Weather History Graph

Daily Weather History Graph

Search for Another Location

Airport:

Trip Planner

Search our weather history database for the weather conditions in past years. The results will help you decide how hot, cold, wet, or windy it might be!

Date:

Astronomy

Mar. 10, 2013 Rise Set
Actual Time 7:43 AM MDT 7:25 PM MDT
Civil Twilight 7:16 AM MDT 7:53 PM MDT
Nautical Twilight 6:44 AM MDT 8:25 PM MDT
Astronomical Twilight 6:11 AM MDT 8:57 PM MDT
Moon 6:46 AM MDT (3/10) 6:37 PM MDT (3/10)
Length of Visible Light 12h 37m
Length of Day
11h 42m
Waning Crescent, 1% of the Moon is Illuminated
Mar 10
Waning Crescent
Mar 11
New
Mar 19
First Quarter
Mar 27
Full
Apr 2
Last Quarter

Hourly Weather History & Observations

Time (MDT) Temp. Windchill Dew Point Humidity Pressure Visibility Wind Dir Wind Speed Gust Speed Precip Events Conditions
12:53 AM 21.0 °F 13.4 °F 12.9 °F 71% 30.25 in 10.0 mi WNW 5.8 mph - N/A   Clear
3:53 AM 19.9 °F 14.9 °F 12.0 °F 71% 30.27 in 10.0 mi SW 3.5 mph - N/A   Clear
4:53 AM 21.0 °F - 12.0 °F 68% 30.27 in 10.0 mi Calm Calm - N/A   Clear
6:53 AM 18.0 °F 9.8 °F 10.9 °F 74% 30.33 in 10.0 mi WSW 5.8 mph - N/A   Clear
7:53 AM 16.0 °F 4.4 °F 10.0 °F 77% 30.37 in 10.0 mi WSW 9.2 mph - N/A   Clear
8:53 AM 19.9 °F 11.1 °F 12.9 °F 74% 30.39 in 10.0 mi WSW 6.9 mph - N/A   Clear
9:53 AM 23.0 °F 12.4 °F 14.0 °F 68% 30.39 in 10.0 mi SW 10.4 mph - N/A   Clear
10:53 AM 27.0 °F 18.7 °F 15.1 °F 61% 30.38 in 10.0 mi WSW 8.1 mph - N/A   Clear
11:53 AM 30.9 °F 22.2 °F 14.0 °F 50% 30.37 in 10.0 mi WSW 10.4 mph - N/A   Clear
12:53 PM 33.1 °F 24.4 °F 15.1 °F 48% 30.34 in 10.0 mi SW 11.5 mph - N/A   Clear
1:53 PM 36.0 °F 27.5 °F 15.1 °F 43% 30.31 in 10.0 mi WSW 12.7 mph - N/A   Clear
2:53 PM 39.0 °F 32.3 °F 16.0 °F 39% 30.25 in 10.0 mi SW 10.4 mph - N/A   Clear
3:53 PM 39.9 °F 31.8 °F 16.0 °F 38% 30.25 in 10.0 mi SW 15.0 mph - N/A   Clear
4:32 PM 39.2 °F 34.2 °F 17.6 °F 42% 30.21 in 10.0 mi NNW 6.9 mph - N/A   Clear
4:53 PM 41.0 °F 38.0 °F 19.0 °F 41% 30.23 in 10.0 mi NW 4.6 mph - N/A   Clear
5:53 PM 37.9 °F 29.6 °F 19.9 °F 48% 30.26 in 10.0 mi WSW 13.8 mph - N/A   Clear
6:53 PM 33.1 °F 23.0 °F 19.0 °F 56% 30.30 in 10.0 mi West 15.0 mph - N/A   Clear
8:53 PM 30.0 °F 19.1 °F 18.0 °F 61% 30.33 in 10.0 mi WSW 15.0 mph - N/A   Clear
9:53 PM 28.9 °F 18.6 °F 17.1 °F 61% 30.33 in 10.0 mi WSW 12.7 mph - N/A   Scattered Clouds
10:53 PM 27.0 °F 15.2 °F 17.1 °F 66% 30.33 in 10.0 mi WSW 15.0 mph - N/A   Partly Cloudy
11:53 PM 26.1 °F 15.6 °F 17.1 °F 69% 30.30 in 10.0 mi SSW 11.5 mph - N/A   Clear